OE6PLD-13 Weather Reports


time (UTC)temp
C
wind
direction
speed
KPH
gust
KPH
rain 1hr
cm
rain 24hr
cm
rain mn
cm
humidity
%
barometer
mb
20260507065924 15 266 0.0 0.0 0.08 0.08 0.00 81 1016.1
20260507065621 15 266 0.0 0.0 0.08 0.08 0.00 81 1016.2
20260507065317 15 266 0.0 1.6 0.08 0.08 0.00 82 1016.3
20260507065014 14 266 1.6 3.2 0.08 0.08 0.00 82 1016.2
20260507064711 14 266 3.2 3.2 0.08 0.08 0.00 82 1016.2
20260507064407 15 266 1.6 4.8 0.08 0.08 0.00 82 1016.1
20260507064104 15 266 3.2 4.8 0.08 0.08 0.00 81 1016.2
20260507063801 15 266 0.0 0.0 0.08 0.08 0.00 81 1016.1
20260507063457 15 266 0.0 0.0 0.08 0.08 0.00 80 1016.2
20260507063154 15 266 0.0 0.0 0.08 0.08 0.00 81 1016.0
20260507062851 15 266 0.0 0.0 0.08 0.08 0.00 82 1016.0
20260507062547 14 266 0.0 0.0 0.08 0.08 0.00 82 1016.2
20260507062244 14 266 0.0 0.0 0.08 0.08 0.00 83 1016.0
20260507061940 14 266 0.0 0.0 0.08 0.08 0.00 83 1016.0
20260507061637 13 266 0.0 0.0 0.08 0.08 0.00 84 1016.0
20260507061334 13 266 0.0 0.0 0.08 0.08 0.00 85 1016.2
20260507061030 13 266 0.0 0.0 0.08 0.08 0.00 85 1016.1
20260507060727 13 266 0.0 0.0 0.08 0.08 0.00 85 1016.1
20260507060424 13 266 0.0 0.0 0.08 0.08 0.00 86 1016.1
20260507060120 13 266 0.0 0.0 0.08 0.08 0.00 86 1016.1
20260507055817 13 266 0.0 0.0 0.08 0.08 0.00 85 1016.0
20260507055514 13 266 0.0 0.0 0.08 0.08 0.00 86 1016.0
20260507055210 13 266 0.0 0.0 0.08 0.08 0.00 86 1016.0
20260507054907 13 266 0.0 0.0 0.08 0.08 0.00 87 1015.9
20260507054604 13 266 0.0 0.0 0.08 0.08 0.00 87 1015.7
20260507054300 13 266 0.0 0.0 0.08 0.08 0.00 87 1015.7
20260507053957 13 266 0.0 0.0 0.08 0.08 0.00 87 1015.6
20260507053654 13 266 0.0 0.0 0.08 0.08 0.00 87 1015.7
20260507053350 12 266 0.0 0.0 0.08 0.08 0.00 87 1015.6
20260507053047 12 266 0.0 0.0 0.08 0.08 0.00 87 1015.7
20260507052744 12 266 0.0 0.0 0.08 0.08 0.00 87 1015.5
20260507052440 12 266 0.0 0.0 0.08 0.08 0.00 87 1015.5
20260507052137 12 266 0.0 0.0 0.08 0.08 0.00 88 1015.3
20260507051833 12 266 0.0 0.0 0.08 0.08 0.00 88 1015.4
20260507051530 12 266 0.0 0.0 0.08 0.08 0.00 88 1015.5
20260507051227 12 266 0.0 0.0 0.08 0.08 0.00 88 1015.3
20260507050923 12 266 0.0 0.0 0.08 0.08 0.00 89 1015.2
20260507050620 12 266 0.0 0.0 0.08 0.08 0.00 89 1015.3
20260507050317 12 266 0.0 0.0 0.08 0.08 0.00 89 1015.3
20260507050013 12 266 0.0 0.0 0.08 0.08 0.00 89 1015.2
20260507045710 12 266 0.0 0.0 0.08 0.08 0.00 89 1015.2
20260507045406 12 266 0.0 0.0 0.08 0.08 0.00 89 1015.1
20260507045103 11 266 0.0 0.0 0.08 0.08 0.00 89 1014.8
20260507044800 11 266 0.0 0.0 0.08 0.08 0.00 89 1015.2
20260507044456 11 266 0.0 0.0 0.08 0.08 0.00 89 1015.1
20260507044153 11 266 0.0 0.0 0.08 0.08 0.00 90 1015.1
20260507043850 11 266 0.0 0.0 0.08 0.08 0.00 90 1014.9
20260507043546 11 266 0.0 0.0 0.08 0.08 0.00 90 1015.0
20260507043243 11 266 0.0 0.0 0.08 0.08 0.00 90 1015.0
20260507042940 11 266 0.0 0.0 0.08 0.08 0.00 90 1014.8
20260507042636 11 266 0.0 0.0 0.08 0.08 0.00 90 1015.0
20260507042333 11 266 0.0 0.0 0.08 0.08 0.00 90 1015.0
20260507042030 11 266 0.0 0.0 0.08 0.08 0.00 90 1014.9
20260507041726 11 266 0.0 0.0 0.08 0.08 0.00 90 1014.8
20260507041423 11 266 0.0 0.0 0.08 0.08 0.00 89 1015.0
20260507041120 11 266 0.0 0.0 0.08 0.08 0.00 89 1014.9
20260507040816 11 266 0.0 0.0 0.08 0.08 0.00 89 1014.7
20260507040513 11 266 0.0 0.0 0.08 0.08 0.00 89 1014.8
20260507040210 11 266 0.0 0.0 0.08 0.08 0.00 89 1014.9
20260507035906 11 266 0.0 0.0 0.08 0.08 0.00 89 1014.7
20260507035603 11 266 0.0 0.0 0.08 0.08 0.00 89 1014.8
20260507035259 11 266 0.0 0.0 0.08 0.08 0.00 89 1014.6
20260507034956 11 266 0.0 0.0 0.08 0.08 0.00 89 1014.5
20260507034653 11 266 0.0 0.0 0.08 0.08 0.00 89 1014.5
20260507034349 11 266 0.0 0.0 0.08 0.08 0.00 89 1014.5
20260507034046 11 266 0.0 0.0 0.08 0.08 0.00 89 1014.6
20260507033743 11 266 0.0 0.0 0.08 0.08 0.00 89 1014.5
20260507033439 11 266 0.0 1.6 0.08 0.08 0.00 89 1014.5
20260507033136 11 266 0.0 3.2 0.08 0.08 0.00 89 1014.4
20260507032833 11 266 1.6 3.2 0.08 0.08 0.00 89 1014.3
20260507032529 11 266 1.6 4.8 0.08 0.08 0.00 88 1014.2
20260507032226 11 266 3.2 3.2 0.08 0.08 0.00 89 1014.2
20260507031923 11 266 0.0 3.2 0.08 0.08 0.00 88 1014.4
20260507031619 12 266 1.6 3.2 0.08 0.08 0.00 88 1014.2
20260507031316 12 266 0.0 0.0 0.08 0.08 0.00 88 1014.4
20260507031012 12 266 0.0 0.0 0.08 0.08 0.00 88 1014.2
20260507030709 12 266 0.0 0.0 0.08 0.08 0.00 88 1014.2
20260507030406 12 266 0.0 0.0 0.08 0.08 0.00 88 1014.2
20260507025759 12 266 0.0 0.0 0.08 0.08 0.00 88 1014.1
20260507025456 12 266 0.0 3.2 0.08 0.08 0.00 87 1014.3
20260507025152 12 266 1.6 3.2 0.08 0.08 0.00 87 1014.1
20260507024849 12 266 0.0 1.6 0.08 0.08 0.00 87 1014.1
20260507024546 12 266 0.0 0.0 0.08 0.08 0.00 87 1014.3
20260507024242 12 266 0.0 0.0 0.08 0.08 0.00 87 1014.1
20260507023939 12 266 0.0 0.0 0.08 0.08 0.00 87 1014.3
20260507023636 12 266 0.0 0.0 0.08 0.08 0.00 87 1014.4
20260507023332 12 266 0.0 0.0 0.08 0.08 0.00 87 1014.0
20260507023029 12 266 0.0 0.0 0.08 0.08 0.00 87 1014.2
20260507022726 12 266 0.0 0.0 0.08 0.08 0.00 87 1014.2
20260507022422 12 266 0.0 0.0 0.08 0.08 0.00 87 1014.3
20260507022119 12 266 0.0 0.0 0.08 0.08 0.00 88 1014.3
20260507021816 12 266 0.0 0.0 0.08 0.08 0.00 88 1014.3
20260507021512 12 266 0.0 0.0 0.08 0.08 0.00 88 1014.1
20260507021209 12 266 0.0 0.0 0.08 0.08 0.00 88 1014.4
20260507020905 12 266 0.0 0.0 0.08 0.08 0.00 88 1014.4
20260507020602 12 266 0.0 1.6 0.08 0.08 0.00 88 1014.3
20260507020259 12 266 1.6 3.2 0.08 0.08 0.00 87 1014.4
20260507015955 12 266 1.6 4.8 0.08 0.08 0.00 87 1014.3
20260507015652 12 266 1.6 4.8 0.08 0.08 0.00 87 1014.2
20260507015349 12 266 3.2 4.8 0.08 0.08 0.00 86 1014.3
20260507015045 12 266 3.2 4.8 0.08 0.08 0.00 86 1014.2
20260507014742 12 266 1.6 3.2 0.08 0.08 0.00 87 1014.3
20260507014439 12 266 0.0 0.0 0.08 0.08 0.00 87 1014.0
20260507014135 12 266 0.0 0.0 0.08 0.08 0.00 87 1014.2
20260507013832 12 266 0.0 0.0 0.08 0.08 0.00 87 1014.1
20260507013529 12 266 0.0 0.0 0.08 0.08 0.00 87 1014.0
20260507013225 12 266 0.0 3.2 0.08 0.08 0.00 87 1014.1
20260507012922 12 266 1.6 3.2 0.08 0.08 0.00 87 1014.1
20260507012618 12 266 1.6 3.2 0.08 0.08 0.00 87 1014.2
20260507012315 12 266 0.0 0.0 0.08 0.08 0.00 87 1014.1
20260507012012 12 266 0.0 0.0 0.08 0.08 0.00 87 1014.0
20260507011709 12 266 0.0 0.0 0.08 0.08 0.00 87 1014.2
20260507011405 12 266 0.0 3.2 0.08 0.08 0.00 87 1014.1
20260507011102 12 266 1.6 3.2 0.08 0.08 0.00 87 1014.2
20260507010758 12 266 1.6 3.2 0.08 0.08 0.00 87 1014.1
20260507010455 12 266 1.6 3.2 0.08 0.08 0.00 87 1014.0
20260507010151 12 266 1.6 3.2 0.08 0.08 0.00 87 1014.2
20260507005848 12 266 0.0 3.2 0.08 0.08 0.00 87 1014.1
20260507005545 12 266 3.2 4.8 0.08 0.08 0.00 87 1014.3
20260507005242 12 266 1.6 4.8 0.08 0.08 0.00 87 1014.2
20260507004938 12 266 3.2 6.4 0.08 0.08 0.00 87 1013.9
20260507004635 12 266 4.8 6.4 0.08 0.08 0.00 87 1014.1
20260507004331 11 266 3.2 8.0 0.08 0.08 0.00 87 1014.2
20260507004028 11 266 4.8 8.0 0.08 0.08 0.00 87 1014.1
20260507003725 11 266 4.8 8.0 0.08 0.08 0.00 87 1014.1
20260507003421 11 266 3.2 6.4 0.08 0.08 0.00 87 1014.2
20260507003118 11 266 1.6 6.4 0.08 0.08 0.00 87 1013.9
20260507002815 11 262 4.8 8.0 0.08 0.08 0.00 87 1014.1
20260507002511 11 257 4.8 9.7 0.08 0.08 0.00 87 1014.0
20260507002208 11 253 6.4 8.0 0.08 0.08 0.00 87 1013.9
20260507001905 11 250 3.2 4.8 0.08 0.08 0.00 87 1013.9
20260507001601 11 246 1.6 4.8 0.08 0.08 0.00 87 1014.2
20260507001258 12 241 3.2 6.4 0.08 0.08 0.00 87 1014.0
20260507000955 12 239 4.8 6.4 0.08 0.08 0.00 87 1014.1
20260507000651 12 235 3.2 4.8 0.08 0.08 0.00 86 1014.0
20260507000350 12 226 0.0 0.0 0.08 0.08 0.00 86 1014.1
20260507000044 12 215 0.0 3.2 0.08 0.08 0.00 86 1014.0
20260506235741 12 204 1.6 3.2 0.08 0.08 0.00 86 1014.0
20260506235438 12 184 0.0 3.2 0.08 0.08 0.00 86 1014.0
20260506235134 12 165 1.6 4.8 0.08 0.08 0.00 85 1014.1
20260506234831 12 152 3.2 4.8 0.08 0.08 0.00 84 1014.1
20260506234528 12 132 0.0 0.0 0.08 0.08 0.00 84 1014.2
20260506234224 12 133 0.0 3.2 0.08 0.08 0.00 83 1014.1
20260506233921 13 132 1.6 4.8 0.08 0.08 0.00 82 1014.0
20260506233618 13 122 1.6 4.8 0.08 0.08 0.00 81 1013.8
20260506233314 15 116 3.2 6.4 0.08 0.08 0.00 79 1013.8
20260506233011 15 109 1.6 3.2 0.08 0.08 0.00 77 1014.0
20260506232708 15 109 1.6 4.8 0.08 0.08 0.00 77 1013.9
20260506232404 15 108 0.0 6.4 0.08 0.08 0.00 77 1013.7
20260506232101 15 106 1.6 6.4 0.08 0.08 0.00 78 1013.9
20260506231758 15 102 0.0 4.8 0.08 0.08 0.00 79 1014.1
20260506231454 15 100 0.0 3.2 0.08 0.08 0.00 78 1014.1
20260506231151 15 98 0.0 0.0 0.08 0.08 0.00 79 1014.1
20260506230847 15 98 0.0 3.2 0.08 0.08 0.00 78 1014.1
20260506230544 15 98 0.0 4.8 0.08 0.08 0.00 78 1014.0
20260506230241 14 96 1.6 3.2 0.08 0.08 0.00 80 1014.1
20260506225937 14 96 0.0 0.0 0.08 0.08 0.00 80 1013.9
20260506225634 15 98 0.0 0.0 0.08 0.08 0.00 79 1014.0
20260506225331 15 99 0.0 0.0 0.08 0.08 0.00 78 1014.1
20260506225027 15 101 0.0 3.2 0.08 0.08 0.00 78 1014.0
20260506224724 15 102 0.0 3.2 0.08 0.08 0.00 77 1014.0
20260506224421 15 101 1.6 3.2 0.08 0.08 0.00 78 1014.0
20260506224118 15 101 0.0 1.6 0.08 0.08 0.00 78 1013.8
20260506223814 15 104 0.0 9.7 0.08 0.08 0.00 78 1014.0
20260506223511 15 103 0.0 9.7 0.08 0.08 0.00 78 1013.9
20260506223207 15 100 0.0 4.8 0.08 0.08 0.00 79 1014.1
20260506222904 15 100 0.0 0.0 0.08 0.08 0.00 79 1014.1
20260506222601 15 102 0.0 0.0 0.08 0.08 0.00 79 1014.0
20260506222257 15 104 0.0 4.8 0.08 0.08 0.00 78 1014.0
20260506221954 15 106 0.0 8.0 0.08 0.08 0.00 78 1013.9
20260506221651 15 106 1.6 9.7 0.08 0.08 0.00 78 1013.9
20260506221347 15 101 1.6 4.8 0.08 0.08 0.00 78 1013.8
20260506221044 15 101 0.0 4.8 0.08 0.08 0.00 78 1013.8
20260506220741 15 99 0.0 1.6 0.08 0.08 0.00 78 1013.9
20260506220437 15 101 0.0 8.0 0.08 0.08 0.00 78 1013.8
20260506220134 15 100 0.0 3.2 0.08 0.08 0.00 78 1014.0
20260506215830 15 101 0.0 3.2 0.08 0.08 0.00 78 1013.9
20260506215527 15 103 0.0 3.2 0.08 0.08 0.00 78 1014.0
20260506215224 15 104 0.0 6.4 0.08 0.08 0.00 78 1014.0
20260506214920 15 105 0.0 9.7 0.08 0.08 0.00 78 1013.9
20260506214617 15 104 1.6 9.7 0.08 0.08 0.00 77 1013.9
20260506214314 15 101 1.6 4.8 0.08 0.08 0.00 77 1013.8
20260506214010 15 102 0.0 4.8 0.08 0.08 0.00 77 1013.8
20260506213707 15 101 0.0 4.8 0.08 0.08 0.00 78 1013.6
20260506213404 15 102 3.2 3.2 0.08 0.08 0.00 77 1013.7
20260506213100 15 101 1.6 4.8 0.08 0.08 0.00 77 1013.7
20260506212757 15 103 0.0 8.0 0.08 0.08 0.00 77 1013.6
20260506212453 15 101 0.0 8.0 0.08 0.08 0.00 77 1013.6
20260506212150 15 101 0.0 8.0 0.08 0.08 0.00 77 1013.8
20260506211847 15 99 1.6 8.0 0.08 0.08 0.00 77 1013.8
20260506211543 15 94 0.0 1.6 0.08 0.08 0.00 77 1013.8
20260506211240 15 95 0.0 3.2 0.08 0.08 0.00 77 1013.6
20260506210937 15 94 0.0 3.2 0.08 0.08 0.00 77 1013.7
20260506210633 15 94 0.0 1.6 0.08 0.08 0.00 77 1013.5
20260506210330 15 96 0.0 0.0 0.08 0.08 0.00 77 1013.7
20260506210026 15 97 0.0 1.6 0.08 0.08 0.00 76 1013.7
20260506205723 16 99 0.0 12.9 0.08 0.08 0.00 76 1013.6
20260506205420 16 101 4.8 12.9 0.08 0.08 0.00 76 1013.5
20260506205117 16 99 1.6 6.4 0.08 0.08 0.00 76 1013.8
20260506204813 16 98 0.0 6.4 0.08 0.08 0.00 76 1013.4
20260506204510 16 96 0.0 3.2 0.08 0.08 0.00 76 1013.6
20260506204206 16 97 0.0 8.0 0.08 0.08 0.00 75 1013.4
20260506203903 16 96 0.0 4.8 0.08 0.08 0.00 75 1013.6
20260506203600 16 97 3.2 9.7 0.08 0.08 0.00 75 1013.7
20260506203256 16 98 0.0 9.7 0.08 0.08 0.00 75 1013.4
20260506202953 16 97 0.0 4.8 0.08 0.08 0.00 74 1013.5
20260506202650 16 98 1.6 4.8 0.08 0.08 0.00 74 1013.4
20260506202346 16 96 1.6 4.8 0.08 0.08 0.00 74 1013.7
20260506202043 16 95 0.0 4.8 0.08 0.08 0.00 74 1013.6
20260506201740 16 95 0.0 3.2 0.08 0.08 0.00 74 1013.8
20260506201436 16 96 0.0 6.4 0.08 0.08 0.00 73 1013.8
20260506201133 16 97 0.0 6.4 0.08 0.08 0.00 73 1013.5
20260506200830 16 98 1.6 4.8 0.08 0.08 0.00 73 1013.5
20260506200526 16 98 0.0 4.8 0.08 0.08 0.00 73 1013.4
20260506200223 16 99 1.6 6.4 0.08 0.08 0.00 73 1013.7
20260506195920 16 99 4.8 4.8 0.08 0.08 0.00 73 1013.5
20260506195616 16 98 3.2 4.8 0.08 0.08 0.00 73 1013.7
20260506195313 16 99 1.6 6.4 0.08 0.08 0.00 72 1013.5
20260506195009 16 99 1.6 6.4 0.08 0.08 0.00 72 1013.5
20260506194706 16 97 1.6 8.0 0.08 0.08 0.00 73 1013.4
20260506194403 16 98 3.2 8.0 0.08 0.08 0.00 73 1013.4
20260506194059 16 98 0.0 4.8 0.08 0.08 0.00 73 1013.6
20260506193756 16 101 1.6 12.9 0.08 0.08 0.00 72 1013.4
20260506193453 16 100 1.6 4.8 0.08 0.08 0.00 72 1013.5
20260506193149 16 99 0.0 3.2 0.08 0.08 0.00 72 1013.3
20260506192846 16 100 1.6 4.8 0.08 0.08 0.00 72 1013.6
20260506192543 16 100 0.0 6.4 0.08 0.08 0.00 71 1013.4
20260506192239 16 100 1.6 9.7 0.08 0.08 0.00 71 1013.4
20260506191936 16 100 1.6 9.7 0.08 0.08 0.00 71 1013.5
20260506191633 16 95 0.0 8.0 0.08 0.08 0.00 72 1013.3
20260506191329 16 97 0.0 8.0 0.08 0.08 0.00 71 1013.2
20260506191026 16 97 0.0 3.2 0.08 0.08 0.00 71 1013.1
20260506190723 17 100 1.6 8.0 0.08 0.08 0.00 71 1013.2
20260506190419 17 103 1.6 8.0 0.08 0.08 0.00 71 1013.1
20260506190116 17 101 3.2 12.9 0.08 0.08 0.00 71 1013.0
20260506185812 17 98 4.8 12.9 0.08 0.08 0.00 71 1013.1
20260506185509 17 97 0.0 4.8 0.08 0.08 0.00 71 1013.1
20260506185206 17 99 0.0 4.8 0.08 0.08 0.00 70 1012.7
20260506184902 17 100 0.0 8.0 0.08 0.08 0.00 70 1012.7
20260506184559 17 107 4.8 8.0 0.08 0.08 0.00 70 1012.6
20260506184256 17 100 0.0 4.8 0.08 0.08 0.00 70 1012.5
20260506183952 17 101 0.0 4.8 0.08 0.08 0.00 70 1012.4
20260506183649 17 98 0.0 6.4 0.08 0.08 0.00 70 1012.6
20260506183346 17 102 0.0 6.4 0.08 0.08 0.00 70 1012.6
20260506183042 17 41 1.6 4.8 0.08 0.08 0.00 70 1012.4
20260506182739 17 312 0.0 3.2 0.08 0.08 0.00 70 1012.5
20260506182436 17 277 0.0 3.2 0.08 0.08 0.00 70 1012.5
20260506182132 17 272 0.0 3.2 0.08 0.08 0.00 69 1012.5
20260506181829 17 264 0.0 3.2 0.08 0.08 0.00 69 1012.4
20260506181526 17 264 0.0 1.6 0.08 0.08 0.00 69 1012.2
20260506181222 17 260 0.0 1.6 0.08 0.08 0.00 68 1012.3
20260506180919 17 260 0.0 3.2 0.08 0.08 0.00 68 1012.1
20260506180616 17 259 0.0 3.2 0.08 0.08 0.00 67 1012.1
20260506180312 17 259 0.0 6.4 0.08 0.08 0.00 67 1012.2
20260506180009 18 256 4.8 9.7 0.08 0.08 0.00 66 1012.4
20260506175705 18 254 0.0 9.7 0.08 0.08 0.00 66 1012.3
20260506175402 18 256 3.2 4.8 0.08 0.08 0.00 66 1012.3
20260506175059 18 256 0.0 16.1 0.08 0.08 0.00 66 1012.2
20260506174755 18 258 8.0 16.1 0.08 0.08 0.00 66 1012.1
20260506174452 18 263 0.0 1.6 0.08 0.08 0.00 66 1012.1
20260506174148 18 261 0.0 4.8 0.08 0.08 0.00 65 1012.3
20260506173845 18 260 3.2 8.0 0.08 0.08 0.00 65 1012.2
20260506173542 18 261 0.0 8.0 0.08 0.08 0.00 65 1012.2
20260506173238 18 260 4.8 12.9 0.08 0.08 0.00 64 1012.2
20260506172935 19 264 4.8 8.0 0.08 0.08 0.00 64 1011.9
20260506172632 19 265 4.8 8.0 0.08 0.08 0.00 63 1012.1
20260506172328 20 267 1.6 3.2 0.08 0.08 0.00 61 1012.1
20260506172025 20 266 0.0 1.6 0.08 0.08 0.00 60 1012.2
20260506171722 20 264 0.0 1.6 0.08 0.08 0.00 61 1012.1
20260506171419 20 263 0.0 4.8 0.08 0.08 0.00 62 1012.1
20260506171115 20 263 0.0 16.1 0.08 0.08 0.00 61 1012.2
20260506170812 20 264 4.8 16.1 0.08 0.08 0.00 62 1012.2
20260506170508 20 266 4.8 4.8 0.08 0.08 0.00 61 1012.0
20260506170205 20 266 0.0 9.7 0.08 0.08 0.00 61 1012.4
20260506165902 20 266 0.0 9.7 0.08 0.08 0.00 61 1012.1
20260506165558 20 266 4.8 20.9 0.08 0.08 0.00 60 1012.0
20260506165255 20 266 8.0 20.9 0.08 0.08 0.00 60 1012.3
20260506164952 21 266 8.0 14.5 0.08 0.08 0.00 58 1012.2
20260506164648 21 266 1.6 9.7 0.08 0.08 0.00 57 1012.4
20260506164345 21 266 3.2 14.5 0.08 0.08 0.00 56 1012.2
20260506164042 21 266 8.0 14.5 0.08 0.08 0.00 57 1012.3
20260506163738 20 266 0.0 14.5 0.08 0.08 0.00 59 1012.1
20260506163435 20 266 1.6 24.1 0.08 0.08 0.00 59 1012.2
20260506163132 20 266 9.7 19.3 0.08 0.08 0.00 59 1012.1
20260506162828 20 266 3.2 19.3 0.08 0.08 0.00 60 1012.4
20260506162525 20 266 6.4 17.7 0.08 0.08 0.00 59 1012.4
20260506162222 20 266 3.2 20.9 0.08 0.08 0.00 59 1012.4
20260506161918 20 266 4.8 19.3 0.08 0.08 0.00 59 1012.1
20260506161615 20 266 1.6 29.0 0.08 0.08 0.00 58 1012.3
20260506161312 21 266 4.8 16.1 0.08 0.08 0.00 56 1012.3
20260506161008 22 266 11.3 16.1 0.08 0.08 0.00 54 1012.2
20260506160705 21 266 3.2 14.5 0.08 0.08 0.00 55 1012.1
20260506160401 21 266 1.6 17.7 0.08 0.08 0.00 57 1012.4
20260506160058 20 266 11.3 17.7 0.08 0.08 0.00 57 1012.4
20260506155755 21 266 9.7 22.5 0.08 0.08 0.00 56 1012.5
20260506155451 21 266 9.7 22.5 0.08 0.08 0.00 55 1012.5
20260506155148 21 266 11.3 20.9 0.08 0.08 0.00 54 1012.3
20260506154844 21 266 14.5 27.4 0.08 0.08 0.00 55 1012.3
20260506154541 21 266 14.5 27.4 0.08 0.08 0.00 55 1012.5
20260506154238 21 266 12.9 20.9 0.08 0.08 0.00 55 1012.4
20260506153934 21 266 14.5 20.9 0.08 0.08 0.00 56 1012.6
20260506153631 21 266 14.5 19.3 0.08 0.08 0.00 54 1012.4
20260506153328 21 266 4.8 33.8 0.08 0.08 0.00 54 1012.4
20260506153024 22 266 4.8 33.8 0.08 0.08 0.00 54 1012.5
20260506152721 22 266 6.4 19.3 0.08 0.08 0.00 52 1012.4
20260506152418 22 266 1.6 16.1 0.08 0.08 0.00 53 1012.6
20260506152115 22 266 4.8 17.7 0.08 0.08 0.00 53 1012.4
20260506151811 22 266 4.8 17.7 0.08 0.08 0.00 52 1012.4
20260506151508 23 266 11.3 17.7 0.08 0.08 0.00 50 1012.6
20260506151204 23 266 6.4 19.3 0.08 0.08 0.00 50 1012.3
20260506150901 23 266 4.8 19.3 0.08 0.08 0.00 51 1012.3
20260506150558 23 266 6.4 22.5 0.08 0.08 0.00 49 1012.3
20260506150302 23 266 6.4 22.5 0.08 0.08 0.00 52 1012.3
20260506145951 23 266 6.4 19.3 0.08 0.08 0.00 50 1012.1
20260506145648 23 266 3.2 29.0 0.08 0.08 0.00 52 1012.5
20260506145344 23 266 11.3 29.0 0.08 0.08 0.00 50 1012.2
20260506145041 23 266 6.4 27.4 0.08 0.08 0.00 49 1012.4
20260506144738 23 266 8.0 27.4 0.08 0.08 0.00 51 1012.3
20260506144434 23 266 11.3 19.3 0.08 0.08 0.00 51 1012.5
20260506144131 23 266 3.2 19.3 0.08 0.08 0.00 50 1012.3
20260506143827 23 266 0.0 19.3 0.08 0.08 0.00 51 1012.4
20260506143524 23 266 8.0 14.5 0.08 0.08 0.00 51 1012.5
20260506143220 23 266 3.2 14.5 0.08 0.08 0.00 51 1012.4
20260506142917 23 266 9.7 30.6 0.08 0.08 0.00 51 1012.4
20260506142614 23 266 16.1 30.6 0.08 0.08 0.00 51 1012.4
20260506142310 23 266 0.0 17.7 0.08 0.08 0.00 51 1012.6
20260506142007 23 266 6.4 16.1 0.08 0.08 0.00 51 1012.6
20260506141704 23 266 3.2 16.1 0.08 0.08 0.00 50 1012.7
20260506141400 22 266 1.6 16.1 0.08 0.08 0.00 51 1012.4
20260506141057 22 266 1.6 17.7 0.08 0.08 0.00 51 1012.5
20260506140753 23 266 9.7 24.1 0.08 0.08 0.00 50 1012.5
20260506140450 23 266 4.8 27.4 0.08 0.08 0.00 49 1012.6
20260506140147 23 266 16.1 27.4 0.08 0.08 0.00 49 1012.4
20260506135843 23 266 1.6 29.0 0.08 0.08 0.00 48 1012.5
20260506135540 23 266 6.4 29.0 0.08 0.08 0.00 48 1012.8
20260506135236 23 266 3.2 12.9 0.08 0.08 0.00 48 1012.4
20260506134933 23 266 6.4 22.5 0.08 0.08 0.00 48 1012.6
20260506134630 23 266 16.1 27.4 0.08 0.08 0.00 48 1012.6
20260506134326 23 266 6.4 27.4 0.08 0.08 0.00 48 1012.6
20260506134023 23 266 17.7 22.5 0.08 0.08 0.00 49 1012.5
20260506133720 24 266 12.9 16.1 0.08 0.08 0.00 47 1012.6
20260506133416 23 266 3.2 12.9 0.08 0.08 0.00 49 1012.2
20260506133113 23 266 6.4 20.9 0.08 0.08 0.00 49 1012.6
20260506132810 24 266 11.3 20.9 0.08 0.08 0.00 49 1012.7
20260506132506 23 266 3.2 22.5 0.08 0.08 0.00 49 1012.7
20260506132203 23 266 12.9 22.5 0.08 0.08 0.00 49 1012.6
20260506131859 24 266 6.4 12.9 0.08 0.08 0.00 48 1012.7
20260506131556 23 266 3.2 12.9 0.08 0.08 0.00 49 1012.7
20260506131253 24 266 3.2 17.7 0.08 0.08 0.00 48 1012.7
20260506130949 25 266 11.3 16.1 0.08 0.08 0.00 48 1012.6
20260506130646 24 266 4.8 17.7 0.08 0.08 0.00 50 1012.7
20260506130343 23 266 11.3 17.7 0.08 0.08 0.00 50 1012.7
20260506130039 23 266 3.2 14.5 0.08 0.08 0.00 49 1012.7
20260506125736 24 266 9.7 14.5 0.08 0.08 0.00 48 1012.6
20260506125433 23 266 1.6 17.7 0.08 0.08 0.00 50 1012.7
20260506125129 23 266 3.2 17.7 0.08 0.08 0.00 51 1012.8
20260506124826 23 266 4.8 20.9 0.08 0.08 0.00 51 1012.9
20260506124523 23 266 8.0 22.5 0.08 0.08 0.00 50 1012.7
20260506124219 23 266 4.8 16.1 0.08 0.08 0.00 49 1012.7
20260506123916 23 266 9.7 27.4 0.08 0.08 0.00 48 1012.9
20260506123612 22 266 4.8 32.2 0.08 0.08 0.00 49 1013.0
20260506123309 22 266 25.7 32.2 0.08 0.08 0.00 49 1013.0
20260506123006 23 266 3.2 9.7 0.08 0.08 0.00 52 1012.9
20260506122702 23 266 6.4 9.7 0.08 0.08 0.00 52 1012.9
20260506122359 23 266 1.6 6.4 0.08 0.08 0.00 51 1013.2
20260506122056 23 266 0.0 14.5 0.08 0.08 0.00 50 1013.0
20260506121752 23 266 9.7 16.1 0.08 0.08 0.00 48 1013.0
20260506121449 23 266 3.2 16.1 0.08 0.08 0.00 49 1013.1
20260506121146 23 266 8.0 16.1 0.08 0.08 0.00 50 1013.1
20260506120842 23 266 8.0 19.3 0.08 0.08 0.00 50 1013.2
20260506120539 23 266 4.8 19.3 0.08 0.08 0.00 50 1013.0
20260506120235 23 266 4.8 14.5 0.08 0.08 0.00 49 1012.9
20260506115932 22 266 11.3 22.5 0.08 0.08 0.00 50 1012.8
20260506115629 23 266 16.1 22.5 0.08 0.08 0.00 49 1012.8
20260506115325 23 266 12.9 22.5 0.08 0.08 0.00 50 1012.8
20260506115022 23 266 4.8 22.5 0.08 0.08 0.00 50 1013.0
20260506114719 22 266 6.4 20.9 0.08 0.08 0.00 50 1013.1
20260506114415 23 266 11.3 19.3 0.08 0.08 0.00 50 1012.7
20260506114112 22 266 14.5 16.1 0.08 0.08 0.00 50 1013.1
20260506113809 22 266 6.4 17.7 0.08 0.08 0.00 51 1013.1
20260506113505 22 266 12.9 17.7 0.08 0.08 0.00 51 1013.1
20260506113202 22 266 8.0 17.7 0.08 0.08 0.00 51 1013.2
20260506112858 23 266 6.4 19.3 0.08 0.08 0.00 50 1013.4
20260506112555 22 266 14.5 19.3 0.08 0.08 0.00 50 1013.1
20260506112252 22 266 8.0 20.9 0.08 0.08 0.00 51 1013.4
20260506111948 22 266 9.7 22.5 0.08 0.08 0.00 51 1013.3
20260506111645 22 266 9.7 22.5 0.08 0.08 0.00 52 1013.4
20260506111342 22 266 9.7 14.5 0.08 0.08 0.00 51 1013.4
20260506111038 22 266 3.2 20.9 0.08 0.08 0.00 52 1013.1
20260506110735 22 266 4.8 24.1 0.08 0.08 0.00 52 1013.3
20260506110431 23 266 16.1 24.1 0.08 0.08 0.00 50 1013.4
20260506110128 22 266 1.6 14.5 0.08 0.08 0.00 53 1013.3
20260506105825 21 266 3.2 14.5 0.08 0.08 0.00 55 1013.4
20260506105521 21 266 1.6 17.7 0.08 0.08 0.00 57 1013.4
20260506105218 21 266 0.0 20.9 0.08 0.08 0.00 56 1013.6
20260506104915 22 266 11.3 20.9 0.08 0.08 0.00 54 1013.6
20260506104611 22 266 8.0 20.9 0.08 0.08 0.00 52 1013.6
20260506104308 22 266 4.8 14.5 0.08 0.08 0.00 50 1013.1
20260506104005 22 266 6.4 16.1 0.08 0.08 0.00 49 1013.3
20260506103701 22 266 14.5 20.9 0.08 0.08 0.00 47 1013.5
20260506103358 23 266 9.7 12.9 0.08 0.08 0.00 46 1013.3
20260506103054 23 266 1.6 14.5 0.08 0.08 0.00 45 1013.3
20260506102751 23 266 3.2 16.1 0.08 0.08 0.00 44 1013.0
20260506102448 23 266 8.0 22.5 0.08 0.08 0.00 44 1013.2
20260506102144 24 266 6.4 22.5 0.08 0.08 0.00 44 1013.3
20260506101841 23 266 4.8 20.9 0.08 0.08 0.00 43 1013.1
20260506101538 24 266 8.0 14.5 0.08 0.08 0.00 41 1013.5
20260506101234 23 266 1.6 19.3 0.08 0.08 0.00 41 1013.2
20260506100931 23 266 8.0 19.3 0.08 0.08 0.00 44 1013.4
20260506100627 23 266 11.3 16.1 0.08 0.08 0.00 43 1013.4
20260506100324 23 266 8.0 16.1 0.08 0.08 0.00 41 1013.1
20260506100021 23 266 1.6 16.1 0.08 0.08 0.00 43 1013.1
20260506095717 23 266 4.8 12.9 0.08 0.08 0.00 42 1013.3
20260506095414 23 266 3.2 22.5 0.08 0.08 0.00 42 1013.2
20260506095111 23 266 11.3 19.3 0.08 0.08 0.00 42 1013.2
20260506094807 23 266 11.3 12.9 0.08 0.08 0.00 40 1013.2
20260506094504 23 266 6.4 14.5 0.08 0.08 0.00 41 1013.2
20260506094200 23 266 9.7 9.7 0.08 0.08 0.00 43 1013.1
20260506093857 23 266 3.2 14.5 0.08 0.08 0.00 43 1013.4
20260506093554 23 266 3.2 9.7 0.08 0.08 0.00 41 1013.2
20260506093250 23 266 1.6 17.7 0.08 0.08 0.00 43 1013.4
20260506092947 23 266 4.8 12.9 0.08 0.08 0.00 44 1013.3
20260506092644 22 266 4.8 14.5 0.08 0.08 0.00 46 1013.3
20260506092340 23 266 3.2 6.4 0.08 0.08 0.00 44 1013.4
20260506092037 22 266 0.0 12.9 0.08 0.08 0.00 47 1013.5
20260506091734 22 266 1.6 17.7 0.08 0.08 0.00 45 1013.5
20260506091430 22 266 3.2 16.1 0.08 0.08 0.00 46 1013.5
20260506091127 22 266 11.3 17.7 0.08 0.08 0.00 46 1013.6
20260506090824 22 266 3.2 6.4 0.08 0.08 0.00 47 1013.9
20260506090520 22 266 3.2 19.3 0.08 0.08 0.00 47 1013.6
20260506090217 22 266 4.8 19.3 0.08 0.08 0.00 47 1013.6
20260506085913 22 266 4.8 19.3 0.08 0.08 0.00 48 1013.6
20260506085610 22 266 4.8 19.3 0.08 0.08 0.00 51 1013.7
20260506085307 22 266 4.8 16.1 0.08 0.08 0.00 51 1013.9
20260506085003 22 266 8.0 12.9 0.08 0.08 0.00 51 1013.8
20260506084700 22 266 1.6 9.7 0.08 0.08 0.00 49 1013.7
20260506084357 22 266 0.0 6.4 0.08 0.08 0.00 52 1013.7
20260506084053 22 266 0.0 6.4 0.08 0.08 0.00 52 1013.6
20260506083750 22 266 0.0 6.4 0.08 0.08 0.00 51 1013.6
20260506083447 21 266 0.0 4.8 0.08 0.08 0.00 53 1013.5
20260506083143 21 266 0.0 12.9 0.08 0.08 0.00 54 1013.6
20260506082840 21 266 8.0 12.9 0.08 0.08 0.00 53 1013.7
20260506082537 21 266 1.6 4.8 0.08 0.08 0.00 53 1013.8
20260506082233 21 266 1.6 4.8 0.08 0.08 0.00 55 1013.9
20260506081930 21 266 0.0 12.9 0.08 0.08 0.00 56 1013.7
20260506081626 20 266 8.0 12.9 0.08 0.08 0.00 57 1013.8
20260506081323 20 266 4.8 12.9 0.08 0.08 0.00 59 1014.0
20260506081020 20 266 6.4 12.9 0.08 0.08 0.00 60 1013.9
20260506080716 20 266 4.8 9.7 0.08 0.08 0.00 58 1014.0
20260506080412 20 266 0.0 8.0 0.08 0.08 0.00 60 1014.1
20260506080108 20 266 3.2 8.0 0.08 0.08 0.00 59 1014.0
20260506073338 20 266 0.0 6.4 0.08 0.08 0.00 60 1013.9
20260506073035 19 266 1.6 6.4 0.08 0.08 0.00 60 1013.7
20260506072732 19 266 1.6 6.4 0.08 0.08 0.00 62 1013.8
20260506072428 19 266 3.2 4.8 0.08 0.08 0.00 61 1013.9
20260506072125 19 266 0.0 6.4 0.08 0.08 0.00 62 1013.9
20260506071821 19 266 0.0 8.0 0.08 0.08 0.00 61 1014.1
20260506071518 18 266 1.6 9.7 0.08 0.08 0.00 62 1014.1
20260506071215 19 266 8.0 9.7 0.08 0.08 0.00 61 1014.0
20260506070911 19 266 1.6 6.4 0.08 0.08 0.00 61 1013.9
20260506070608 19 266 0.0 4.8 0.08 0.08 0.00 63 1013.9
20260506070305 18 266 1.6 6.4 0.08 0.08 0.00 62 1013.8